Location: *
(35.8942°N, 23.3025°E)
Time: 11:29:31
(UTC+00:00)

LilacSat-2 - Visible Passes

Search period start: 02 April 2023 00:00
Search period end: 12 April 2023 00:00
Orbit: 498 x 521 km, 97.5° (Epoch: 02 April)

Date Brightness Start Highest point End Pass type
(mag) Time Alt. Az. Time Alt. Az. Time Alt. Az.
04 Apr ? 03:39:27 10° NE 03:42:13 20° E 03:44:58 10° SE visible
05 Apr ? 03:23:54 10° ENE 03:25:26 12° E 03:26:58 10° ESE visible
10 Apr ? 03:33:20 10° NE 03:35:45 16° E 03:38:11 10° SE visible
